| time (UTC) | temp C | wind direction | speed KPH | gust KPH | rain 1hr cm | rain 24hr cm | rain mn cm | humidity % | barometer mb |
| 20260506050113 | 12 | 0 | 0.0 | 0.0 | 0.03 | 1.04 | 0.03 | 94 | 1004.4 |
| 20260506040113 | 12 | 0 | 0.0 | 0.0 | 0.00 | 1.02 | 0.00 | 94 | 1004.3 |
| 20260506033113 | 12 | 0 | 0.0 | 0.0 | 0.00 | 1.02 | 0.00 | 94 | 1004.5 |
| 20260506020113 | 12 | 0 | 0.0 | 0.0 | 0.00 | 1.02 | 0.00 | 93 | 1004.7 |
| 20260506010112 | 13 | 0 | 0.0 | 0.0 | 0.00 | 1.02 | 0.00 | 93 | 1004.9 |
| 20260506003112 | 13 | 0 | 0.0 | 0.0 | 0.00 | 1.02 | 0.00 | 93 | 1005.2 |
| 20260506000112 | 13 | 0 | 0.0 | 0.0 | 0.00 | 1.02 | 0.00 | 93 | 1005.2 |
| 20260505233113 | 13 | 0 | 0.0 | 0.0 | 0.00 | 1.02 | 0.00 | 92 | 1005.4 |
| 20260505230112 | 13 | 0 | 0.0 | 0.0 | 0.00 | 1.02 | 0.00 | 92 | 1005.4 |
| 20260505223112 | 14 | 0 | 0.0 | 0.0 | 0.00 | 1.02 | 0.00 | 92 | 1005.4 |
| 20260505213112 | 14 | 0 | 0.0 | 0.0 | 0.23 | 1.02 | 1.02 | 91 | 1005.5 |
| 20260505210111 | 15 | 0 | 0.0 | 0.0 | 0.36 | 0.99 | 0.99 | 91 | 1005.6 |
| 20260505203111 | 15 | 0 | 0.0 | 0.0 | 0.33 | 0.79 | 0.79 | 90 | 1005.5 |
| 20260505173111 | 16 | 0 | 0.0 | 0.0 | 0.00 | 0.46 | 0.46 | 89 | 1005.0 |
| 20260505170111 | 16 | 0 | 0.0 | 0.0 | 0.00 | 0.46 | 0.46 | 89 | 1005.0 |
| 20260505163111 | 16 | 0 | 0.0 | 0.0 | 0.00 | 0.46 | 0.46 | 89 | 1005.1 |
| 20260505160110 | 16 | 0 | 0.0 | 0.0 | 0.00 | 0.46 | 0.46 | 89 | 1005.3 |
| 20260505153110 | 16 | 0 | 0.0 | 0.0 | 0.03 | 0.46 | 0.46 | 89 | 1005.4 |
| 20260505150110 | 16 | 0 | 0.0 | 0.0 | 0.05 | 0.46 | 0.46 | 87 | 1005.6 |
| 20260505140110 | 17 | 202 | 1.6 | 9.7 | 0.41 | 0.41 | 0.41 | 80 | 1006.1 |
| 20260505130110 | 19 | 270 | 0.0 | 4.8 | 0.00 | 0.00 | 0.00 | 66 | 1005.7 |
| 20260505123110 | 20 | 315 | 0.0 | 3.2 | 0.00 | 0.00 | 0.00 | 66 | 1005.7 |
| 20260505120109 | 20 | 0 | 0.0 | 0.0 | 0.00 | 0.00 | 0.00 | 65 | 1005.7 |
| 20260505113109 | 20 | 0 | 0.0 | 0.0 | 0.00 | 0.00 | 0.00 | 62 | 1005.9 |
| 20260505110109 | 20 | 0 | 0.0 | 0.0 | 0.00 | 0.00 | 0.00 | 65 | 1005.9 |
| 20260505100109 | 19 | 0 | 0.0 | 0.0 | 0.00 | 0.00 | 0.00 | 66 | 1006.6 |
| 20260505093110 | 19 | 247 | 0.0 | 6.4 | 0.00 | 0.00 | 0.00 | 68 | 1006.7 |
| 20260505090109 | 18 | 0 | 0.0 | 0.0 | 0.00 | 0.00 | 0.00 | 70 | 1006.8 |
| 20260505083109 | 18 | 0 | 0.0 | 0.0 | 0.00 | 0.00 | 0.00 | 71 | 1007.0 |
| 20260505080109 | 18 | 0 | 0.0 | 0.0 | 0.00 | 0.00 | 0.00 | 74 | 1007.1 |
| 20260505073113 | 16 | 0 | 0.0 | 0.0 | 0.00 | 0.00 | 0.00 | 79 | 1007.3 |
| 20260505070113 | 16 | 0 | 0.0 | 0.0 | 0.00 | 0.00 | 0.00 | 82 | 1007.5 |
| 20260505063113 | 15 | 0 | 0.0 | 0.0 | 0.00 | 0.00 | 0.00 | 84 | 1007.6 |
| 20260505060113 | 15 | 0 | 0.0 | 0.0 | 0.00 | 0.00 | 0.00 | 85 | 1007.8 |